Time,TemperatureF,DewpointF,PressureIn,WindDirection,WindDirectionDegrees,WindSpeedMPH,WindSpeedGustMPH,Humidity,HourlyPrecipIn,Conditions,Clouds,dailyrainin,SoftwareType,DateUTC
2013-02-26 00:01:00,36.0,23.0,30.16,East,91,4.0,5.0,59,0.00,,,0.00,weatherlink.com 1.10,2013-02-26 05:01:00,
2013-02-26 00:16:00,36.2,23.0,30.15,East,79,5.0,6.0,58,0.00,,,0.00,weatherlink.com 1.10,2013-02-26 05:16:00,
2013-02-26 00:31:00,36.2,23.0,30.15,NE,45,5.0,7.0,60,0.00,,,0.00,weatherlink.com 1.10,2013-02-26 05:31:00,
2013-02-26 00:46:00,36.1,24.0,30.15,East,79,3.0,3.0,61,0.00,,,0.00,weatherlink.com 1.10,2013-02-26 05:46:00,
2013-02-26 01:01:00,35.8,25.0,30.13,NE,56,8.0,11.0,64,0.00,,,0.00,weatherlink.com 1.10,2013-02-26 06:01:00,
2013-02-26 01:16:00,35.5,24.0,30.12,NNE,25,4.0,13.0,63,0.00,,,0.00,weatherlink.com 1.10,2013-02-26 06:16:00,
2013-02-26 01:31:00,35.7,24.0,30.12,East,82,0.0,11.0,62,0.00,,,0.00,weatherlink.com 1.10,2013-02-26 06:31:00,
2013-02-26 01:46:00,35.7,24.0,30.11,ENE,75,6.0,10.0,62,0.00,,,0.00,weatherlink.com 1.10,2013-02-26 06:46:00,
2013-02-26 02:01:00,35.6,24.0,30.11,East,79,9.0,13.0,62,0.00,,,0.00,weatherlink.com 1.10,2013-02-26 07:01:00,
2013-02-26 02:16:00,35.7,24.0,30.10,East,79,2.0,10.0,63,0.00,,,0.00,weatherlink.com 1.10,2013-02-26 07:16:00,
2013-02-26 02:31:00,35.9,24.0,30.11,East,98,3.0,5.0,63,0.00,,,0.00,weatherlink.com 1.10,2013-02-26 07:31:00,
2013-02-26 02:46:00,35.6,25.0,30.10,East,89,2.0,7.0,65,0.00,,,0.00,weatherlink.com 1.10,2013-02-26 07:46:00,
2013-02-26 03:01:00,35.5,25.0,30.08,ENE,63,2.0,8.0,67,0.00,,,0.00,weatherlink.com 1.10,2013-02-26 08:01:00,
2013-02-26 03:16:00,35.1,26.0,30.07,NE,36,5.0,8.0,70,0.00,,,0.00,weatherlink.com 1.10,2013-02-26 08:16:00,
2013-02-26 03:32:00,34.9,26.0,30.06,East,98,3.0,8.0,70,0.00,,,0.00,weatherlink.com 1.10,2013-02-26 08:32:00,
2013-02-26 03:47:00,34.9,26.0,30.06,East,84,6.0,7.0,71,0.00,,,0.00,weatherlink.com 1.10,2013-02-26 08:47:00,
2013-02-26 04:02:00,35.0,26.0,30.07,ESE,121,2.0,5.0,71,0.00,,,0.00,weatherlink.com 1.10,2013-02-26 09:02:00,
2013-02-26 04:17:00,35.2,27.0,30.06,East,79,4.0,6.0,71,0.00,,,0.00,weatherlink.com 1.10,2013-02-26 09:17:00,
2013-02-26 04:32:00,34.8,27.0,30.06,ESE,115,0.0,8.0,73,0.00,,,0.00,weatherlink.com 1.10,2013-02-26 09:32:00,
2013-02-26 04:47:00,33.6,28.0,30.07,ENE,63,5.0,11.0,80,0.01,,,0.01,weatherlink.com 1.10,2013-02-26 09:47:00,
2013-02-26 05:02:00,32.7,29.0,30.07,ENE,71,6.0,11.0,85,0.02,,,0.02,weatherlink.com 1.10,2013-02-26 10:02:00,
2013-02-26 05:18:00,32.5,29.0,30.04,ENE,65,6.0,15.0,87,0.02,,,0.02,weatherlink.com 1.10,2013-02-26 10:18:00,
2013-02-26 05:33:00,32.3,29.0,30.04,ENE,76,8.0,13.0,88,0.02,,,0.02,weatherlink.com 1.10,2013-02-26 10:33:00,
2013-02-26 05:48:00,32.1,30.0,30.04,NE,50,7.0,15.0,90,0.01,,,0.02,weatherlink.com 1.10,2013-02-26 10:48:00,
2013-02-26 06:03:00,32.0,29.0,30.03,North,4,4.0,16.0,90,0.01,,,0.03,weatherlink.com 1.10,2013-02-26 11:03:00,
2013-02-26 06:17:00,32.0,29.0,30.02,NE,46,3.0,12.0,90,0.01,,,0.03,weatherlink.com 1.10,2013-02-26 11:17:00,
2013-02-26 06:33:00,32.1,30.0,30.02,ENE,68,2.0,12.0,90,0.01,,,0.03,weatherlink.com 1.10,2013-02-26 11:33:00,
2013-02-26 06:47:00,32.1,30.0,30.01,ENE,61,7.0,17.0,90,0.01,,,0.03,weatherlink.com 1.10,2013-02-26 11:47:00,
2013-02-26 07:03:00,32.2,30.0,30.00,ENE,70,0.0,11.0,91,0.00,,,0.03,weatherlink.com 1.10,2013-02-26 12:03:00,
2013-02-26 07:19:00,32.3,30.0,29.99,NNE,30,7.0,13.0,91,0.00,,,0.03,weatherlink.com 1.10,2013-02-26 12:19:00,
2013-02-26 07:34:00,32.4,30.0,29.98,ENE,74,7.0,13.0,91,0.01,,,0.04,weatherlink.com 1.10,2013-02-26 12:34:00,
2013-02-26 07:49:00,32.5,30.0,29.98,NNW,329,3.0,17.0,91,0.03,,,0.06,weatherlink.com 1.10,2013-02-26 12:49:00,
2013-02-26 08:03:00,32.4,30.0,29.97,NNE,17,5.0,14.0,91,0.07,,,0.10,weatherlink.com 1.10,2013-02-26 13:03:00,
2013-02-26 08:18:00,32.5,30.0,29.98,NE,51,3.0,12.0,91,0.11,,,0.14,weatherlink.com 1.10,2013-02-26 13:18:00,
2013-02-26 08:33:00,32.6,31.0,29.97,NNE,23,5.0,9.0,92,0.15,,,0.19,weatherlink.com 1.10,2013-02-26 13:33:00,
2013-02-26 08:49:00,32.7,31.0,29.95,NE,44,10.0,13.0,92,0.15,,,0.21,weatherlink.com 1.10,2013-02-26 13:49:00,
2013-02-26 09:05:00,32.8,31.0,29.95,ENE,62,4.0,14.0,92,0.15,,,0.25,weatherlink.com 1.10,2013-02-26 14:05:00,
2013-02-26 09:18:00,32.9,31.0,29.94,East,82,8.0,12.0,92,0.13,,,0.27,weatherlink.com 1.10,2013-02-26 14:18:00,
2013-02-26 09:34:00,33.1,31.0,29.93,East,84,10.0,12.0,93,0.09,,,0.28,weatherlink.com 1.10,2013-02-26 14:34:00,
2013-02-26 09:49:00,33.2,31.0,29.90,ENE,70,11.0,15.0,92,0.08,,,0.29,weatherlink.com 1.10,2013-02-26 14:49:00,
2013-02-26 10:04:00,33.5,32.0,29.89,East,89,5.0,13.0,93,0.06,,,0.31,weatherlink.com 1.10,2013-02-26 15:04:00,
2013-02-26 10:19:00,33.9,32.0,29.88,ENE,68,6.0,17.0,92,0.07,,,0.35,weatherlink.com 1.10,2013-02-26 15:19:00,
2013-02-26 10:34:00,33.8,32.0,29.86,NE,40,8.0,19.0,93,0.14,,,0.42,weatherlink.com 1.10,2013-02-26 15:34:00,
2013-02-26 10:49:00,34.2,32.0,29.85,NNE,25,4.0,17.0,93,0.16,,,0.45,weatherlink.com 1.10,2013-02-26 15:49:00,
2013-02-26 11:04:00,34.7,33.0,29.84,East,82,6.0,17.0,93,0.16,,,0.48,weatherlink.com 1.10,2013-02-26 16:04:00,
2013-02-26 11:19:00,34.7,33.0,29.84,ENE,69,9.0,12.0,93,0.16,,,0.52,weatherlink.com 1.10,2013-02-26 16:19:00,
2013-02-26 11:34:00,34.8,33.0,29.82,ENE,72,8.0,15.0,93,0.13,,,0.55,weatherlink.com 1.10,2013-02-26 16:34:00,
2013-02-26 11:49:00,34.7,33.0,29.82,East,91,2.0,12.0,93,0.11,,,0.57,weatherlink.com 1.10,2013-02-26 16:49:00,
2013-02-26 12:05:00,35.2,33.0,29.81,ENE,67,4.0,9.0,93,0.11,,,0.59,weatherlink.com 1.10,2013-02-26 17:05:00,
2013-02-26 12:20:00,35.3,34.0,29.81,ENE,69,2.0,9.0,93,0.10,,,0.62,weatherlink.com 1.10,2013-02-26 17:20:00,
2013-02-26 12:35:00,35.5,34.0,29.78,ENE,61,9.0,10.0,93,0.09,,,0.64,weatherlink.com 1.10,2013-02-26 17:35:00,
2013-02-26 13:05:00,35.1,33.0,29.75,NE,51,4.0,9.0,93,0.07,,,0.67,weatherlink.com 1.10,2013-02-26 18:05:00,
2013-02-26 13:20:00,35.1,33.0,29.72,NE,53,5.0,14.0,93,0.05,,,0.67,weatherlink.com 1.10,2013-02-26 18:20:00,
2013-02-26 13:35:00,35.2,33.0,29.70,ESE,106,5.0,18.0,93,0.04,,,0.68,weatherlink.com 1.10,2013-02-26 18:35:00,
2013-02-26 13:50:00,35.5,34.0,29.70,NE,53,7.0,12.0,94,0.03,,,0.68,weatherlink.com 1.10,2013-02-26 18:50:00,
2013-02-26 14:05:00,35.9,34.0,29.67,East,98,6.0,14.0,94,0.02,,,0.69,weatherlink.com 1.10,2013-02-26 19:05:00,
2013-02-26 14:20:00,36.3,35.0,29.66,ENE,62,7.0,14.0,94,0.04,,,0.71,weatherlink.com 1.10,2013-02-26 19:20:00,
2013-02-26 14:35:00,36.6,35.0,29.64,East,84,3.0,13.0,94,0.04,,,0.72,weatherlink.com 1.10,2013-02-26 19:35:00,
2013-02-26 14:51:00,37.1,36.0,29.64,East,94,3.0,14.0,94,0.05,,,0.73,weatherlink.com 1.10,2013-02-26 19:51:00,
2013-02-26 15:05:00,37.5,36.0,29.62,East,82,12.0,17.0,94,0.05,,,0.74,weatherlink.com 1.10,2013-02-26 20:05:00,
2013-02-26 15:20:00,37.6,36.0,29.62,NE,35,5.0,9.0,94,0.06,,,0.77,weatherlink.com 1.10,2013-02-26 20:20:00,
2013-02-26 15:35:00,37.9,36.0,29.64,East,96,2.0,7.0,94,0.07,,,0.79,weatherlink.com 1.10,2013-02-26 20:35:00,
2013-02-26 15:50:00,38.2,37.0,29.66,NW,315,0.0,7.0,94,0.07,,,0.80,weatherlink.com 1.10,2013-02-26 20:50:00,
2013-02-26 16:05:00,38.6,37.0,29.63,North,6,1.0,7.0,95,0.07,,,0.81,weatherlink.com 1.10,2013-02-26 21:05:00,
2013-02-26 16:20:00,38.4,37.0,29.63,ENE,60,3.0,9.0,94,0.04,,,0.81,weatherlink.com 1.10,2013-02-26 21:20:00,
2013-02-26 16:35:00,38.5,37.0,29.63,NNE,20,0.0,6.0,94,0.02,,,0.81,weatherlink.com 1.10,2013-02-26 21:35:00,
2013-02-26 16:50:00,38.5,37.0,29.63,East,100,2.0,8.0,94,0.02,,,0.82,weatherlink.com 1.10,2013-02-26 21:50:00,
2013-02-26 17:05:00,38.7,37.0,29.63,WNW,297,1.0,7.0,94,0.01,,,0.82,weatherlink.com 1.10,2013-02-26 22:05:00,
2013-02-26 17:20:00,38.7,37.0,29.64,ENE,74,2.0,6.0,94,0.01,,,0.82,weatherlink.com 1.10,2013-02-26 22:20:00,
2013-02-26 17:35:00,38.4,37.0,29.63,ENE,70,8.0,9.0,94,0.01,,,0.82,weatherlink.com 1.10,2013-02-26 22:35:00,
2013-02-26 17:50:00,37.9,36.0,29.62,NE,46,4.0,8.0,94,0.00,,,0.82,weatherlink.com 1.10,2013-02-26 22:50:00,
2013-02-26 18:05:00,37.9,36.0,29.62,ENE,70,1.0,5.0,94,0.00,,,0.82,weatherlink.com 1.10,2013-02-26 23:05:00,
2013-02-26 18:20:00,38.0,37.0,29.62,East,86,1.0,6.0,95,0.00,,,0.82,weatherlink.com 1.10,2013-02-26 23:20:00,
2013-02-26 18:35:00,38.1,37.0,29.62,ENE,72,2.0,2.0,94,0.00,,,0.82,weatherlink.com 1.10,2013-02-26 23:35:00,
2013-02-26 18:50:00,39.7,39.0,29.63,NW,323,0.0,2.0,96,0.00,,,0.82,weatherlink.com 1.10,2013-02-26 23:50:00,
2013-02-26 19:05:00,38.7,37.0,29.65,NNW,342,0.0,2.0,94,0.00,,,0.82,weatherlink.com 1.10,2013-02-27 00:05:00,
2013-02-26 19:20:00,38.4,37.0,29.65,ENE,70,0.0,1.0,94,0.00,,,0.82,weatherlink.com 1.10,2013-02-27 00:20:00,
2013-02-26 19:35:00,38.7,37.0,29.66,ENE,76,0.0,1.0,95,0.00,,,0.82,weatherlink.com 1.10,2013-02-27 00:35:00,
2013-02-26 19:50:00,39.4,38.0,29.66,ENE,61,0.0,2.0,95,0.00,,,0.82,weatherlink.com 1.10,2013-02-27 00:50:00,
2013-02-26 20:05:00,39.9,38.0,29.67,NNE,12,0.0,0.0,92,0.00,,,0.82,weatherlink.com 1.10,2013-02-27 01:05:00,
2013-02-26 20:20:00,39.3,38.0,29.67,West,273,0.0,2.0,93,0.00,,,0.82,weatherlink.com 1.10,2013-02-27 01:20:00,
2013-02-26 20:35:00,39.3,38.0,29.66,NW,321,0.0,1.0,94,0.00,,,0.82,weatherlink.com 1.10,2013-02-27 01:35:00,
2013-02-26 20:50:00,41.5,40.0,29.66,North,350,0.0,1.0,93,0.00,,,0.82,weatherlink.com 1.10,2013-02-27 01:50:00,
2013-02-26 21:06:00,40.0,38.0,29.66,North,356,0.0,1.0,92,0.00,,,0.82,weatherlink.com 1.10,2013-02-27 02:06:00,
2013-02-26 21:21:00,39.9,38.0,29.66,North,360,0.0,0.0,92,0.00,,,0.82,weatherlink.com 1.10,2013-02-27 02:21:00,
2013-02-26 21:35:00,40.1,38.0,29.67,North,358,0.0,1.0,92,0.00,,,0.82,weatherlink.com 1.10,2013-02-27 02:35:00,
2013-02-26 21:51:00,39.3,38.0,29.67,North,354,0.0,1.0,93,0.00,,,0.82,weatherlink.com 1.10,2013-02-27 02:51:00,
2013-02-26 22:05:00,40.4,39.0,29.67,North,359,0.0,0.0,95,0.00,,,0.82,weatherlink.com 1.10,2013-02-27 03:05:00,
2013-02-26 22:21:00,39.3,38.0,29.67,NW,304,0.0,1.0,94,0.00,,,0.82,weatherlink.com 1.10,2013-02-27 03:21:00,
2013-02-26 22:36:00,39.1,38.0,29.68,WSW,241,1.0,2.0,95,0.00,,,0.82,weatherlink.com 1.10,2013-02-27 03:36:00,
2013-02-26 22:51:00,39.1,38.0,29.68,SW,233,0.0,3.0,96,0.00,,,0.82,weatherlink.com 1.10,2013-02-27 03:51:00,
2013-02-26 23:06:00,39.2,38.0,29.68,SW,225,0.0,2.0,96,0.00,,,0.82,weatherlink.com 1.10,2013-02-27 04:06:00,
2013-02-26 23:21:00,39.2,38.0,29.67,West,262,0.0,2.0,96,0.00,,,0.82,weatherlink.com 1.10,2013-02-27 04:21:00,
2013-02-26 23:36:00,39.3,38.0,29.67,WSW,243,0.0,1.0,96,0.00,,,0.82,weatherlink.com 1.10,2013-02-27 04:36:00,
2013-02-26 23:51:00,39.3,38.0,29.67,West,266,1.0,4.0,96,0.00,,,0.82,weatherlink.com 1.10,2013-02-27 04:51:00,